Overview Statistics Trail Chart Weather Telemetry Raw packets
 

This is the latest recevied weather packets stored in our database for station/object SA7AHC. If no packets are shown the sender has not sent any weather packets the latest 10 day(s).

<< 1 2 3 4 5 6 7 >>
Time Temp. Humidity Pressure Rain* Wind** Luminosity Snow
1788590284 11.67° C 98% 1001.9 hPa 0 mm - 153 W/m² -
1788589682 11.11° C 98% 1001.9 hPa 0 mm - 51 W/m² -
1788589081 11.11° C 98% 1001.7 hPa 0 mm - 67 W/m² -
1788588481 11.11° C 98% 1001.5 hPa 0 mm - 56 W/m² -
1788587882 11.11° C 99% 1001.5 hPa 0 mm - 33 W/m² -
1788587282 10.56° C 99% 1001.4 hPa 0 mm - 37 W/m² -
1788586681 10.56° C 99% 1001.4 hPa 0 mm - 26 W/m² -
1788586083 10.56° C 99% 1001.4 hPa 0 mm - 12 W/m² -
1788585481 10.56° C 99% 1001.3 hPa 0 mm - 5 W/m² -
1788584881 10.56° C 99% 1001.2 hPa 0 mm - 0 W/m² -
1788584281 10.56° C 99% 1001.2 hPa 0 mm - 5 W/m² -
1788583708 10.56° C 99% 1000.9 hPa 0 mm - 5 W/m² -
1788583082 10.56° C 99% 1000.8 hPa 0 mm - 7 W/m² -
1788582484 10.56° C 99% 1000.8 hPa 0 mm - 5 W/m² -
1788581881 10.56° C 99% 1000.8 hPa 0 mm - 0 W/m² -
1788581281 10.56° C 99% 1000.5 hPa 0 mm - 0 W/m² -
1788580681 10.56° C 99% 1000.5 hPa 0 mm - 0 W/m² -
1788580081 10.56° C 99% 1000.3 hPa 0 mm - 0 W/m² -
1788579482 10.56° C 99% 1000.3 hPa 0 mm - 0 W/m² -
1788578885 10.56° C 99% 1000.3 hPa 0 mm - 0 W/m² -
1788578283 10.56° C 99% 999.8 hPa 0 mm - 0 W/m² -
1788577685 10.56° C 99% 999.7 hPa 0 mm - 0 W/m² -
1788577082 10.56° C 99% 999.7 hPa 0 mm - 0 W/m² -
1788576481 10.56° C 99% 999.6 hPa 0.25 mm - 0 W/m² -
1788575881 10.56° C 99% 999.4 hPa 0.25 mm - 0 W/m² -

* Rain latest hour (hover to see other rain measurements)
** Current wind speed in m/s (hover to see current wind gust speed)